Wind_Speed
9 10 10 8 10 12 14 16 12 11 8 7 5 5 9 8 10 11 13 13 13 11 11 10 10 10 12 13 12 11 9 11 7 6 7 8 14 17 19 19 16 17 16 16
11 13 16 8 7 10 12 12 14 13 11 10 10 7 4 5 13 15 18 13 11 10 10 12 13 13 14 14 13 12 11 10 8 8 7 10 16 17 18 19 19 17 16 16
13 17 12 8 10 10 7 8 10 12 12 10 9 7 6 6 8 17 18 19 9 13 13 12 12 13 13 14 13 12 12 10 9 8 9 9 9 16 15 20 21 18 16 16
10 9 7 7 10 13 7 11 8 8 6 7 9 2 8 7 7 15 19 20 18 17 15 12 12 14 14 15 14 14 12 10 9 9 10 10 12 15 14 17 23 20 16 17
9 9 10 10 13 15 12 12 12 10 9 9 12 2 14 8 8 9 9 21 17 20 18 17 15 15 14 16 15 15 13 11 11 10 10 10 10 16 19 17 20 21 17 17
10 10 10 11 9 8 6 7 8 11 7 2 19 12 15 11 10 8 8 5 15 18 17 15 13 13 15 15 17 18 16 13 11 12 11 11 12 14 16 19 21 20 18 18
10 8 7 6 5 4 5 4 3 3 6 6 17 6 16 12 13 13 11 8 13 17 18 14 14 14 16 18 18 19 18 16 13 12 13 13 14 15 17 20 21 20 21 20
9 7 8 4 4 5 5 10 9 9 9 8 11 4 13 12 9 9 8 9 11 9 19 20 16 16 18 19 18 17 19 19 17 15 14 14 15 18 17 19 22 20 19 22
12 13 10 6 6 6 11 5 13 9 11 6 10 10 11 13 11 4 4 7 8 10 11 21 22 20 18 19 19 18 18 19 19 18 15 16 17 18 18 20 21 22 22 21
12 13 11 8 9 9 6 9 5 5 7 3 9 8 7 10 11 9 4 5 6 10 11 13 26 24 20 20 23 23 22 20 21 19 18 15 16 19 20 19 19 21 21 22
13 11 11 12 12 10 7 3 5 12 12 7 4 7 10 11 11 10 10 9 8 8 8 12 14 26 29 25 24 23 24 23 22 21 21 19 18 18 21 21 18 17 17 20
16 9 10 11 14 15 15 12 10 4 11 8 14 9 9 8 12 12 13 13 13 13 11 13 15 17 18 18 23 28 28 25 25 24 22 23 20 19 20 21 19 17 18 18
15 12 12 12 14 15 16 16 13 14 12 12 8 11 16 9 10 13 12 11 14 15 15 13 17 18 18 17 22 27 30 27 28 26 24 23 24 23 23 24 21 20 19 19
16 13 14 9 13 16 16 15 14 14 12 10 13 14 15 12 10 10 13 14 13 18 17 15 15 18 20 17 21 24 32 30 26 28 27 25 25 27 27 26 23 22 21 19
18 17 21 22 23 20 19 16 13 14 14 16 16 15 13 14 11 11 12 14 17 17 20 18 15 15 19 19 22 24 33 38 30 26 25 27 30 29 30 29 27 26 24 23
15 20 20 23 22 22 24 21 18 16 16 14 14 15 18 16 15 14 12 15 18 19 19 19 18 17 15 16 19 24 29 35 31 26 27 30 33 32 32 32 33 30 27 26
20 23 20 18 25 22 22 22 20 18 15 14 13 19 16 17 17 17 15 15 17 20 20 20 20 18 19 18 23 24 28 33 35 33 33 32 33 31 32 33 31 30 29 29
23 24 23 18 25 23 21 19 21 21 19 20 20 21 20 20 20 21 21 19 18 19 21 21 20 23 24 23 24 27 28 25 30 31 32 35 31 35 29 31 39 36 31 34
27 25 25 23 21 22 18 20 22 23 24 23 24 24 24 22 22 24 23 20 19 19 21 22 24 23 25 30 29 28 26 27 29 30 30 35 36 33 35 38 35 37 37 33
29 24 23 21 20 21 20 21 22 25 23 26 26 25 22 22 22 28 21 22 21 21 21 23 23 26 26 27 33 33 31 28 31 33 31 30 32 33 36 37 36 33 32 33
30 25 23 22 20 20 19 21 25 23 26 23 24 23 21 22 23 25 21 21 22 21 22 22 23 26 27 28 27 34 37 33 32 32 33 33 34 35 32 34 38 39 36 34
33 28 27 22 23 20 20 25 23 24 23 25 22 20 20 18 19 22 22 22 22 21 19 21 23 24 26 26 27 29 34 36 36 36 34 34 34 36 37 36 36 39 40 38
36 32 28 26 21 20 22 22 21 21 22 22 21 19 19 17 19 21 22 22 21 20 20 20 21 23 24 26 27 26 31 35 36 36 33 32 31 32 33 36 39 39 38 37
39 33 32 25 22 20 22 21 22 24 23 22 21 18 15 15 18 20 20 20 20 20 21 22 23 23 23 25 26 26 28 31 33 34 32 32 29 27 27 26 34 38 38 36
41 35 32 29 22 22 25 25 27 24 24 23 21 18 17 17 17 19 20 20 21 22 22 20 22 22 22 24 25 27 27 28 32 33 32 33 32 28 25 22 25 32 38 39
39 38 34 33 26 27 28 28 27 24 24 24 20 20 21 19 18 18 19 20 21 22 22 24 23 23 22 22 24 27 28 28 28 29 31 32 33 34 31 29 26 29 29 30
Wind_Direction
206 194 205 214 214 196 195 197 203 222 238 243 236 222 219 216 211 203 191 185 175 170 163 163 171 188 150 156 158 164 162 168 161 158 161 178 177 170 169 166 154 148 147 148
203 204 218 212 195 199 209 212 225 235 247 249 240 219 230 229 216 222 197 182 186 193 167 173 175 192 178 174 180 174 174 174 180 173 160 170 166 166 171 174 167 152 152 160
205 214 230 204 182 184 195 219 229 220 223 231 235 241 249 261 236 218 222 216 194 190 186 186 191 191 199 187 191 188 179 179 185 180 161 150 157 160 172 180 175 169 166 171
218 213 211 180 179 179 171 220 221 227 188 257 216 304 267 246 248 222 234 221 215 196 182 177 192 202 202 199 197 199 186 179 176 185 169 149 166 178 166 171 182 180 177 178
201 185 181 169 168 184 207 201 204 223 237 244 263 217 268 257 260 264 239 229 222 194 196 192 195 202 202 210 205 205 193 185 179 177 191 192 183 175 183 172 180 180 177 181
164 177 180 182 183 193 187 180 206 223 239 332 268 235 281 249 264 277 276 242 233 191 203 198 194 197 199 209 208 210 197 181 192 195 198 202 193 182 181 185 183 184 183 183
184 181 198 194 205 236 243 215 348 308 287 239 271 247 231 247 256 272 278 283 207 197 205 207 204 202 206 209 213 205 201 194 193 206 192 199 194 184 183 186 190 201 197 191
176 238 227 228 204 262 272 203 210 258 252 266 265 249 257 247 231 266 262 272 266 257 217 199 210 217 217 216 216 212 206 195 196 210 206 198 203 200 200 204 210 214 208 204
206 211 234 223 234 251 284 246 215 234 273 264 252 269 270 254 233 238 208 237 241 255 260 236 227 223 207 212 220 224 217 210 201 208 222 209 199 202 207 210 216 220 215 212
211 217 229 235 251 252 218 232 252 237 223 248 270 282 232 256 245 226 224 210 235 252 261 276 233 224 218 225 233 238 222 219 217 212 218 223 216 204 204 209 216 222 221 220
207 185 251 243 246 243 254 227 182 192 217 211 312 297 272 251 246 241 229 229 231 234 260 276 263 243 227 236 241 237 221 217 217 220 221 222 221 213 211 211 210 210 216 219
215 190 246 230 256 253 252 217 228 233 300 266 206 240 259 256 242 243 241 238 230 234 240 235 239 254 252 254 250 231 227 218 217 220 225 230 227 224 224 220 217 213 212 211
219 212 240 269 269 265 248 240 232 234 230 233 225 271 273 256 254 257 259 252 246 233 237 233 227 240 233 237 236 223 230 224 219 220 221 227 229 225 223 226 224 220 220 215
226 212 209 233 225 221 246 237 233 237 240 256 261 227 272 259 256 258 261 260 256 237 232 237 223 237 241 244 221 236 231 229 230 225 224 226 228 227 228 224 220 223 224 226
232 228 224 232 238 247 253 255 246 241 237 232 231 246 251 267 261 251 255 262 260 259 245 241 236 236 236 241 229 243 229 228 231 223 224 235 232 231 232 235 229 221 226 228
234 236 242 252 243 245 253 266 271 264 254 253 255 259 250 254 256 248 244 252 261 262 262 249 242 232 243 234 231 226 225 220 225 235 236 241 232 233 238 237 241 239 230 233
240 238 249 253 255 258 260 259 264 262 269 272 274 268 272 269 269 264 257 255 259 261 264 258 245 240 225 223 223 226 229 222 229 236 237 242 241 230 240 240 244 248 249 249
240 246 253 247 263 262 251 257 258 262 269 269 267 273 278 277 269 262 262 261 262 261 257 257 255 242 232 226 224 228 234 236 236 240 241 230 231 239 237 244 244 241 249 249
241 244 257 256 266 260 259 259 261 264 266 267 270 272 276 272 267 258 256 257 258 258 260 263 261 258 249 237 229 226 231 228 232 237 243 238 239 244 248 251 250 251 251 238
240 241 253 253 244 256 261 262 263 266 270 270 272 273 270 266 263 261 253 254 258 255 250 253 257 260 259 249 244 237 232 234 236 226 230 238 238 248 249 246 247 240 242 243
242 242 243 252 251 251 254 254 261 270 266 273 271 272 264 253 254 267 259 257 257 255 255 253 255 257 259 260 253 245 241 238 236 237 235 231 233 237 243 242 244 241 242 245
234 235 239 249 248 255 258 259 268 269 274 273 270 265 265 264 257 258 260 259 258 255 253 256 256 259 261 260 260 253 246 242 238 237 245 246 242 242 240 243 240 241 244 247
230 230 239 243 254 248 253 259 269 274 272 272 272 265 261 259 256 255 256 259 260 258 258 259 261 261 259 260 258 257 249 245 245 243 247 250 244 246 242 242 242 239 241 245
230 232 235 242 246 247 250 265 270 272 276 277 268 262 272 274 264 256 256 256 256 257 260 261 260 261 261 260 257 257 250 249 242 240 242 250 250 254 252 253 243 239 241 237
233 231 237 244 254 246 249 264 264 271 273 271 265 262 262 267 271 266 262 263 262 263 263 267 271 264 260 261 258 257 253 250 246 243 245 252 254 257 254 257 257 255 244 245
234 237 244 243 249 242 247 246 260 267 270 272 261 265 260 264 276 266 264 268 269 265 267 272 271 266 262 262 264 258 252 249 246 246 247 251 254 257 260 261 273 265 256 256
Height
5872 5874 5874 5878 5878 5880 5880 5882 5883 5883 5884 5885 5885 5884 5883 5882 5883 5885 5887 5888 5889 5890 5890 5891 5892 5893 5893 5895 5896 5898 5899 5901 5903 5903 5903 5902 5904 5907 5910 5913 5915 5917 5921 5923
5870 5871 5871 5875 5876 5877 5879 5881 5881 5882 5882 5883 5883 5884 5883 5882 5883 5884 5885 5887 5889 5889 5889 5891 5892 5893 5893 5895 5897 5899 5900 5901 5903 5904 5904 5904 5905 5907 5910 5914 5916 5918 5921 5925
5867 5869 5870 5873 5874 5876 5879 5879 5879 5880 5881 5882 5882 5884 5882 5882 5881 5882 5884 5883 5887 5888 5889 5891 5892 5893 5894 5895 5897 5899 5900 5901 5903 5904 5905 5906 5907 5908 5910 5913 5917 5919 5922 5925
5866 5868 5870 5872 5873 5876 5881 5879 5879 5879 5883 5883 5882 5884 5881 5881 5880 5881 5882 5883 5885 5887 5888 5890 5892 5893 5894 5895 5896 5898 5900 5901 5903 5905 5906 5907 5909 5910 5911 5913 5916 5919 5921 5924
5866 5867 5868 5870 5873 5875 5877 5877 5877 5878 5881 5882 5882 5885 5881 5880 5880 5879 5879 5880 5882 5885 5886 5888 5890 5892 5894 5895 5896 5898 5900 5902 5904 5906 5907 5908 5909 5910 5911 5913 5916 5919 5921 5923
5864 5865 5867 5869 5871 5873 5875 5876 5877 5877 5879 5885 5879 5881 5882 5879 5879 5878 5877 5878 5879 5880 5884 5887 5889 5891 5893 5895 5895 5897 5899 5901 5903 5905 5906 5907 5909 5910 5911 5914 5916 5919 5920 5923
5864 5865 5867 5868 5870 5872 5873 5877 5883 5884 5884 5886 5877 5879 5879 5877 5877 5876 5876 5877 5877 5878 5882 5886 5888 5889 5891 5893 5893 5895 5897 5899 5902 5904 5906 5907 5908 5911 5912 5914 5916 5918 5920 5922
5865 5866 5865 5867 5870 5872 5872 5878 5883 5883 5884 5883 5876 5878 5876 5873 5875 5875 5875 5875 5876 5877 5880 5883 5885 5886 5888 5891 5893 5894 5895 5896 5899 5902 5905 5907 5908 5910 5911 5914 5916 5917 5919 5921
5864 5867 5864 5865 5867 5870 5870 5871 5876 5877 5876 5876 5878 5874 5872 5871 5872 5873 5873 5874 5874 5876 5878 5879 5882 5884 5885 5888 5890 5891 5892 5894 5895 5899 5903 5904 5908 5909 5910 5912 5914 5916 5918 5920
5860 5863 5862 5863 5865 5866 5867 5870 5872 5873 5877 5876 5876 5871 5873 5869 5869 5871 5872 5872 5873 5874 5875 5875 5877 5881 5883 5885 5887 5889 5890 5891 5892 5895 5899 5903 5905 5907 5909 5910 5912 5914 5917 5919
5856 5860 5860 5861 5862 5867 5864 5866 5867 5870 5871 5875 5876 5875 5867 5866 5866 5867 5868 5869 5870 5871 5873 5873 5873 5876 5878 5881 5884 5885 5887 5889 5890 5892 5895 5898 5902 5905 5907 5908 5910 5912 5914 5917
5852 5860 5861 5863 5859 5860 5861 5864 5867 5869 5871 5869 5868 5872 5866 5864 5863 5864 5865 5866 5867 5867 5869 5870 5871 5872 5874 5877 5878 5881 5884 5886 5887 5888 5892 5894 5898 5902 5905 5907 5909 5911 5913 5915
5850 5854 5857 5856 5857 5856 5857 5857 5860 5863 5866 5867 5868 5871 5864 5862 5861 5861 5862 5863 5864 5864 5864 5865 5866 5868 5869 5871 5873 5876 5880 5882 5883 5886 5889 5892 5895 5897 5900 5904 5906 5909 5911 5913
5846 5852 5853 5859 5855 5854 5853 5854 5856 5858 5862 5866 5865 5865 5859 5859 5859 5859 5858 5859 5859 5860 5860 5860 5861 5863 5864 5866 5869 5873 5875 5878 5881 5884 5886 5889 5892 5894 5896 5898 5902 5905 5908 5910
5842 5845 5846 5846 5846 5847 5848 5849 5852 5853 5854 5856 5861 5858 5856 5854 5855 5855 5855 5854 5853 5854 5855 5856 5856 5857 5858 5860 5862 5865 5868 5872 5876 5880 5883 5886 5886 5889 5892 5895 5897 5899 5903 5905
5836 5839 5840 5839 5840 5841 5843 5844 5846 5847 5848 5849 5850 5851 5849 5850 5850 5850 5850 5850 5849 5849 5849 5850 5851 5852 5853 5854 5856 5858 5862 5867 5871 5874 5878 5879 5882 5884 5887 5890 5893 5896 5897 5900
5830 5832 5834 5836 5834 5835 5839 5839 5840 5841 5842 5843 5844 5843 5844 5844 5844 5845 5845 5845 5845 5845 5845 5845 5846 5848 5849 5851 5852 5855 5858 5863 5866 5869 5871 5873 5876 5879 5882 5884 5887 5890 5893 5895
5822 5825 5827 5831 5828 5831 5832 5833 5834 5835 5836 5836 5837 5837 5837 5837 5838 5838 5838 5839 5839 5839 5840 5840 5841 5843 5844 5845 5848 5850 5852 5855 5859 5862 5864 5867 5870 5873 5876 5879 5882 5884 5885 5888
5815 5819 5820 5822 5823 5825 5826 5827 5828 5829 5830 5830 5830 5830 5830 5830 5830 5830 5831 5832 5833 5833 5834 5834 5834 5836 5838 5839 5841 5843 5845 5847 5851 5854 5856 5859 5864 5867 5869 5871 5874 5876 5877 5880
5808 5812 5814 5815 5818 5818 5820 5820 5821 5821 5823 5822 5823 5823 5824 5824 5824 5820 5825 5826 5827 5827 5828 5828 5828 5827 5829 5831 5833 5835 5836 5839 5842 5845 5848 5851 5854 5858 5859 5862 5865 5867 5871 5873
5801 5806 5808 5809 5810 5813 5814 5814 5814 5817 5816 5816 5816 5816 5816 5816 5817 5815 5818 5820 5820 5820 5821 5821 5822 5821 5821 5822 5825 5827 5829 5832 5834 5838 5840 5841 5845 5847 5849 5852 5855 5858 5861 5864
5793 5798 5801 5804 5805 5808 5808 5808 5809 5809 5808 5808 5809 5809 5809 5809 5810 5810 5810 5811 5812 5814 5814 5814 5814 5814 5815 5815 5815 5818 5820 5823 5827 5830 5833 5835 5836 5838 5840 5842 5844 5847 5851 5855
5784 5790 5794 5797 5800 5799 5801 5801 5801 5802 5802 5803 5803 5803 5803 5803 5803 5803 5804 5805 5806 5806 5807 5807 5807 5807 5808 5808 5808 5809 5811 5814 5817 5821 5823 5826 5827 5830 5831 5833 5836 5839 5841 5844
5774 5782 5786 5790 5792 5793 5794 5795 5795 5795 5795 5796 5796 5797 5797 5798 5797 5797 5797 5798 5799 5799 5800 5800 5800 5800 5800 5800 5801 5802 5803 5805 5808 5812 5814 5817 5819 5821 5823 5825 5827 5830 5832 5834
5765 5774 5777 5782 5785 5786 5787 5788 5787 5788 5788 5789 5790 5791 5792 5792 5792 5792 5791 5791 5792 5792 5792 5793 5792 5792 5792 5792 5793 5793 5795 5797 5799 5802 5805 5808 5811 5814 5816 5818 5820 5822 5823 5826
5760 5765 5771 5775 5776 5777 5780 5780 5781 5782 5782 5783 5785 5786 5787 5787 5786 5785 5784 5784 5785 5785 5784 5784 5785 5785 5785 5785 5785 5786 5787 5789 5791 5794 5797 5800 5802 5806 5808 5811 5812 5813 5815 5816